Home > Weather > Breda > Past weeks

Flag for Netherlands Past Weather in Breda, Netherlands — Yesterday and Last 2 Weeks

Now
68 °F

Broken clouds.


Feels Like: 68 °F
Forecast: 56 / 73 °F
Wind: 9 mph from East

Location: Gilze-Rijen

Current Time: May 27, 2016 at 2:32:17 PM

Latest Report: May 27, 2016 at 1:55 PM


Visibility: 6 mi

Pressure: 29.98 "Hg

Humidity: 64%

Dew Point: 55 °F

Location of BredaLocation

Past Weather in Breda — Graph

°F

Breda Temperature Yesterday

Maximum temperature yesterday: 68 °F (at 3:55 PM)
Minimum temperature yesterday: 43 °F (at 5:25 AM)
Average temperature yesterday: 56 °F

High & Low Weather Summary for the Past Weeks

 TemperatureHumidityPressure
High79 °F (May 12, 5:25 PM)100% (May 18, 11:25 PM)30.15 "Hg (May 18, 11:25 PM)
Low36 °F (May 16, 3:25 AM)29% (May 13, 2:25 PM)29.47 "Hg (May 12, 4:55 PM)
Average56 °F76%29.92 "Hg
* Reported May 12 1:25 PM — May 27 1:25 PM, Breda, Weather by CustomWeather, © 2016

Note: Actual official high and low records may vary slightly from our data, if they occured in-between our weather recording intervals... More about our weather records

Advertising

Breda Weather History for the Previous 24 Hours

Scroll right to see more
 ConditionsComfort  
Time TempWeatherWind HumidityBarometerVisibility
1:25 PM
Fri, May 27
68 °FPartly sunny.8 mph69%29.98 "Hg5 mi
12:55 PM66 °FPartly sunny.9 mph73%29.98 "Hg6 mi
12:25 PM64 °FMostly cloudy.9 mph73%29.98 "Hg4 mi
11:55 AM63 °FPartly sunny.10 mph77%29.98 "Hg4 mi
11:25 AM63 °FFog.8 mph77%30.01 "Hg4 mi
10:55 AM61 °FFog.8 mph83%29.98 "Hg4 mi
10:25 AM61 °FFog.7 mph83%30.01 "Hg4 mi
9:55 AM59 °FFog.7 mph82%29.98 "Hg4 mi
9:25 AM59 °FFog.6 mph82%29.98 "Hg3 mi
8:55 AM57 °FFog.6 mph88%29.98 "Hg3 mi
8:25 AM57 °FFog.7 mph88%29.98 "Hg3 mi
7:55 AM55 °FFog.7 mph94%29.98 "Hg3 mi
7:25 AM55 °FDrizzle. Overcast.5 mph94%29.98 "Hg2 mi
6:55 AM55 °FFog.5 mph88%29.98 "Hg3 mi
6:25 AM55 °FFog.3 mph88%29.98 "Hg3 mi
5:55 AM55 °FFog.5 mph88%29.98 "Hg3 mi
5:25 AM55 °FFog.5 mph88%29.98 "Hg3 mi
4:55 AM55 °FFog.5 mph88%29.98 "Hg3 mi
4:25 AM55 °FFog.7 mph88%29.98 "Hg3 mi
3:55 AM55 °FFog.7 mph88%29.98 "Hg4 mi
3:25 AM57 °FFog.6 mph82%29.98 "Hg4 mi
2:55 AM57 °FFog.7 mph82%29.98 "Hg4 mi
2:25 AM57 °FFog.7 mph82%29.98 "Hg4 mi
1:55 AM57 °FFog.8 mph82%29.98 "Hg5 mi
1:25 AM57 °FFog.8 mph82%29.98 "Hg5 mi
12:55 AM55 °FFog.7 mph88%29.98 "Hg4 mi
12:25 AM57 °FMostly cloudy.7 mph82%29.98 "Hg4 mi
11:55 PM
Thu, May 26
59 °FMostly cloudy.8 mph77%29.98 "Hg5 mi
11:25 PM57 °FPassing clouds.8 mph82%30.01 "Hg5 mi
10:55 PM59 °FPassing clouds.10 mph77%29.98 "Hg5 mi
10:25 PM59 °FScattered clouds.6 mph82%29.98 "Hg6 mi
9:55 PM61 °FHaze.7 mph72%29.98 "Hg6 mi
9:25 PM63 °FPartly sunny.9 mph68%29.98 "HgN/A
8:55 PM64 °FScattered clouds.9 mph60%29.98 "HgN/A
8:25 PM66 °FPartly sunny.9 mph56%29.98 "HgN/A
7:55 PM66 °FScattered clouds.9 mph60%29.98 "HgN/A
7:25 PM66 °FMild.10 mph60%29.98 "HgN/A
6:55 PM68 °FMild.9 mph56%29.98 "HgN/A
6:25 PM68 °FPassing clouds.9 mph53%29.98 "HgN/A
5:55 PM68 °FPassing clouds.10 mph56%29.98 "HgN/A
5:25 PM68 °FMild.8 mph56%29.98 "HgN/A
4:55 PM68 °FMild.8 mph56%29.98 "HgN/A
4:25 PM66 °FScattered clouds.8 mph60%30.01 "HgN/A
3:55 PM68 °FPassing clouds.7 mph56%30.01 "HgN/A
3:25 PM66 °FPassing clouds.8 mph60%30.01 "HgN/A
2:55 PM66 °FHaze.8 mph60%30.01 "Hg6 mi
2:25 PM66 °FPartly sunny.6 mph64%30.01 "HgN/A
Weather by CustomWeather, © 2016

See weather overviewHow to use our weather pages